BLACK SEA ONE LOFT RACE 2017 – Hot Spot 3-220 km

  • Hot – Spot 3

  • Release Point: Pechea – Galati
  • Info: Temperature: 12 ℃,
    Wind: 7km/h NE,
    Humid: 84%,
    Rain : 0%,
    Cloud: 0%
  • Distance: 220 km
  • Release Time: 24.08.2017 06:35:00 (GMT +3:00)
  • basketed Pigeons: 949
  • arrived Pigeons: 802
  • expected Pigeons: 147
Rank Fancier Country Pigeon Arrival Speed [m/min] Pigeon Name
1 Emeralds & Diamonds Dynasty United Kingdom GB-17-16552 24.08.2017 09:24:55.18 1294.7295
2 Team Castleview United Kingdom GB-17-63344 24.08.2017 09:24:56.26 1294.5923
3 Furlan & Zampollo Italy Team Italy IT-17-302208 24.08.2017 09:24:56.27 1294.5911
4 Andrei Marius & Silviu Spiridon Romania RO-17-003430 24.08.2017 09:24:56.88 1294.5136
5 Gaust Gherhard Germany DV-0244-17-545 24.08.2017 09:25:00.92 1294.0009
6 Theo & Markus Lecke Germany DV-04087-17-123 24.08.2017 09:25:04.98 1293.4861
7 Koroglu Karakurt Pigeons Turkey TR-17-147789 24.08.2017 09:25:28.64 1290.4941
8 Karl Heinz Wichert 2 Germany DV-02618-17-335 24.08.2017 09:25:30.50 1290.2595
9 Lupoiu Florentin Romania RO-17-192202 24.08.2017 09:25:33.49 1289.8825
10 Team Duica Iulian Romania RO-17-12745 24.08.2017 09:25:33.50 1289.8813
11 Karl Heinz Wichert 1 Germany DV-02618-17-350 24.08.2017 09:25:37.11 1289.4264
12 Fam. Tampeanu Romania RO-17-170714 24.08.2017 09:25:40.30 1289.0247
13 Team Verl Germany DV-0018-17-307 24.08.2017 09:25:43.13 1288.6686
14 Garbatovschi Dumitru Republic Of Moldova MD-17-4407 24.08.2017 09:25:51.67 1287.5951
15 G&D Aslanidis Greece GR-17-1033757 24.08.2017 09:25:56.50 1286.9887
16 Hok Reijnen – Bolton Netherlands NL-13-3714062 24.08.2017 09:26:35.52 1282.1111
17 Tules Ialcin & Denis Romania RO-17-260299 24.08.2017 09:26:57.69 1279.3561
18 G&D Aslanidis Greece GR-17-1033739 24.08.2017 09:27:01.95 1278.8281
19 Petar Petrov Bulgaria BG-17-50036 24.08.2017 09:27:58.61 1271.8466
20 Dimitar Todorov Bulgaria BG-17-77046 24.08.2017 09:28:01.31 1271.5158
21 Familie Soellner Germany DV-02733-17-692 24.08.2017 09:28:10.32 1270.4132
22 Frincu Mihai Romania RO-17-9004182 24.08.2017 09:28:11.09 1270.3191
23 Coman Catalin Romania RO-17-500103 24.08.2017 09:28:15.38 1269.7949
24 Stefan Radev & Maxim Kumanov Bulgaria BG-17-20264 24.08.2017 09:28:34.49 1267.4648
25 Ghica Ionut Bogdan Romania RO-17-186217 24.08.2017 09:29:15.09 1262.5429
26 Team Ion Mihai & Chifor Razvan Romania RO-17-4099318 24.08.2017 09:29:15.10 1262.5417
27 Team Verl Germany DV-0018-17-304 24.08.2017 09:29:15.70 1262.4693
28 Familie Soellner Germany DV-02733-17-668 24.08.2017 09:29:17.85 1262.2097
29 Duta Sebastian Romania RO-17-4051123 24.08.2017 09:29:21.81 1261.7320
30 Omer Durak Turkey TR-17-132011 24.08.2017 09:29:21.82 1261.7308
31 Alexander Gebel Germany DV-07407-17-2137 24.08.2017 09:29:34.43 1260.2118
32 Baris Savaskan Turkey TR-17-144603 24.08.2017 09:29:36.86 1259.9195
33 Stroe Florin Alin Romania RO-17-4067018 24.08.2017 09:29:37.24 1259.8738
34 Ferhat Gulez Turkey TR-17-030546 24.08.2017 09:29:37.25 1259.8726
35 Badiceanu & Ionut Romania RO-17-081010 24.08.2017 09:29:40.32 1259.5035
36 Banu Costel Romania RO-17-186504 24.08.2017 09:29:42.11 1259.2884
37 Team Verl Germany DV-0018-17-932 24.08.2017 09:29:49.36 1258.4181
38 Team Steinbinder & Seniuc Germany DV-048-17-763 24.08.2017 09:29:55.28 1257.7082
39 Horvath Szabolcs Hungary HU-17-269987 24.08.2017 09:30:06.20 1256.4010
40 Emeralds & Diamonds Dynasty United Kingdom GB-17-16577 24.08.2017 09:30:23.40 1254.3475
41 Malescu Ciprian Romania RO-17-19823 24.08.2017 09:30:46.61 1251.5870
42 Habaci & Arcaleanu Romania RO-17-6025458 24.08.2017 09:32:43.42 1237.8768
43 Dincer Turkey TR-17-060030 24.08.2017 09:32:55.52 1236.4737
44 Vikont & Vikontesa Bulgaria BG-17-09172 24.08.2017 09:33:16.08 1234.0970
45 G&D Aslanidis Greece GR-17-1033777 24.08.2017 09:34:33.84 1225.1899
46 Alp Race Team Switzerland CH-17-4022 24.08.2017 09:34:36.95 1224.8363
47 Alexander Gebel Germany DV-07407-17-2138 24.08.2017 09:34:39.36 1224.5625
48 Marquart & Soehne Germany DV-09999-17-717 24.08.2017 09:34:39.78 1224.5148
49 Cingoz & Ulufer Kardesler Turkey TR-17-158613 24.08.2017 09:34:39.79 1224.5137
50 Karl Heinz Lang Germany DV-8596-17-616 24.08.2017 09:34:39.89 1224.5023
51 Radu V. Ion Romania RO-17-011037 24.08.2017 09:34:40.27 1224.4591
52 Team Deigner-Sun-Lin Germany CHN-17-0754460 24.08.2017 09:34:40.86 1224.3921
53 Bucsa Daniel Romania RO-17-0275046 24.08.2017 09:34:41.78 1224.2876
54 Team Duica Iulian Romania RO-17-12773 24.08.2017 09:34:41.88 1224.2763
55 Karl Heinz Wichert 1 Germany DV-02618-17-343 24.08.2017 09:34:41.89 1224.2752
56 SG Siebert/Gunter Germany DV-06723-17-7195 24.08.2017 09:34:42.91 1224.1593
57 Badiceanu & Ionut Romania RO-17-081016 24.08.2017 09:34:43.63 1224.0776
58 Ferhat Gulez Turkey TR-17-030557 24.08.2017 09:34:44.41 1223.9891
59 F Baris & Meulenberg Netherlands NL-17-1427690 24.08.2017 09:34:44.93 1223.9301
60 Svilen Penkov Romania BG-17-356942 24.08.2017 09:34:45.41 1223.8756
61 Stroe Florin Alin Romania RO-17-4067053 24.08.2017 09:34:46.39 1223.7644
62 Ady Colniceanu – Superstar Race Romania RO-17-460212 24.08.2017 09:34:47.11 1223.6827
63 Karl Heinz Wichert 2 Germany DV-02618-17-332 24.08.2017 09:34:49.10 1223.4570
64 Voinea Dorin Romania RO-17-180981 24.08.2017 09:34:49.41 1223.4219
65 Frysian Basterds Netherlands NL-17-1604280 24.08.2017 09:34:49.65 1223.3946
66 Vikont & Vikontesa Bulgaria BG-17-09144 24.08.2017 09:34:50.08 1223.3459
67 Karl Heinz Wichert 3 Germany DV-02618-17-187 24.08.2017 09:34:50.54 1223.2937
68 Cristiano Paltrinieri Italy IT-17-242056 24.08.2017 09:34:52.19 1223.1067
69 Theo & Markus Lecke Germany DV-04087-17-106 24.08.2017 09:34:54.62 1222.8314
70 Team Deigner-Sun-Lin Germany CHN-17-0754465 24.08.2017 09:34:55.71 1222.7079
71 Cazacu Alexandru Romania RO-17-006121 24.08.2017 09:34:55.89 1222.6875
72 Team Van Tilburg / Jovati Netherlands NL-17-3712812 24.08.2017 09:34:56.25 1222.6468
73 Team Deigner-Sun-Lin Germany CHN-17-0754468 24.08.2017 09:34:56.90 1222.5731
74 Caraba & Ususan Romania RO-17-6029209 24.08.2017 09:34:58.33 1222.4112
75 Emeralds & Diamonds Dynasty United Kingdom GB-17-16576 24.08.2017 09:35:05.68 1221.5798
76 Ahmet Guloglu & Muzaffer Kizil Turkey TR-17-162508 24.08.2017 09:35:10.97 1220.9820
77 Walter Zerner Austria AU-602-17-1289 24.08.2017 09:35:25.30 1219.3657
78 Alexander Gebel Germany DV-07407-17-2142 24.08.2017 09:35:30.41 1218.7904
79 Columbodrom Cajvana Romania RO-17-2099543 24.08.2017 09:35:32.70 1218.5328
80 Team Deigner-Sun-Lin Germany CHN-17-0754478 24.08.2017 09:35:35.13 1218.2595
81 Ilhan Ibis-Lili Bulgaria RO-17-356325 24.08.2017 09:35:36.02 1218.1594
82 Antofie Catalin Romania RO-17-511118 24.08.2017 09:35:37.39 1218.0054
83 Cingoz & Ulufer Kardesler Turkey TR-17-158048 24.08.2017 09:35:39.56 1217.7616
84 Team Coldea & Basch Romania RO-17-136163 24.08.2017 09:35:40.42 1217.6650
85 Team Duica Iulian Romania RO-17-12733 24.08.2017 09:35:43.31 1217.3405
86 Team Verl Germany DV-0018-17-320 24.08.2017 09:35:45.60 1217.0834
87 Tamer Sanli Turkey TR-17-036036 24.08.2017 09:35:47.97 1216.8175
88 Team Flavigny France FR-17-218932 24.08.2017 09:35:48.59 1216.7480
89 Emeralds & Diamonds Dynasty United Kingdom GB-17-16575 24.08.2017 09:35:49.08 1216.6930
90 Team Verl Germany DV-0018-17-937 24.08.2017 09:35:50.45 1216.5394
91 Team Giurca Petre & Marian Romania IT-17-202640 24.08.2017 09:35:51.77 1216.3914
92 Zafer Kurtulmus Germany DV-02884-17-331 24.08.2017 09:35:52.38 1216.3231
93 Paul Popovici Austria AU-602-17-424 24.08.2017 09:35:54.84 1216.0474
94 Ionesi Constantin & Ioan Romania RO-17-304404 24.08.2017 09:35:55.33 1215.9925
95 Team Verl Germany DV-0018-17-925 24.08.2017 09:35:57.41 1215.7596
96 Team Sporting Pigeons Portugal PT-17-7116482 24.08.2017 09:35:57.42 1215.7584
97 Matei & Ploscaru Italy IT-17-310069 24.08.2017 09:35:58.21 1215.6700
98 Bucur Catalin Romania RO-17-4004206 24.08.2017 09:36:01.89 1215.2581
99 Team Wanders 2 Germany DV-0643-17-71 24.08.2017 09:36:02.97 1215.1373
100 Ahmet Guloglu & Muzaffer Kizil Turkey TR-17-147831 24.08.2017 09:36:11.83 1214.1470
101 Tandemul Vlasin & Ruscovan Team Italy RO-17-40426 24.08.2017 09:36:15.75 1213.7094
102 Karl Heinz Wichert 2 Germany DV-02618-17-328 24.08.2017 09:36:17.65 1213.4974
103 Lukacs Stefan Romania RO-17-370723 24.08.2017 09:36:22.23 1212.9867
104 Laura Sunshine Team Germany DV-05412-17-673 24.08.2017 09:36:23.33 1212.8641
105 Team Verl Germany DV-0018-17-936 24.08.2017 09:36:25.28 1212.6468
106 SG Siebert/Gunter Germany DV-06723-17-7397 24.08.2017 09:36:27.28 1212.4240
107 Muntean Vasile & Mihai Romania RO-17-0013918 24.08.2017 09:36:30.80 1212.0322
108 Theo Stemmann Germany DV-02803-17-389 24.08.2017 09:36:31.99 1211.8998
109 Maxim Kumanov & Stefan Radev Bulgaria BG-17-52049 24.08.2017 09:36:32.01 1211.8975
110 Harrie van Boxmeer Netherlands NL-17-1449055 24.08.2017 09:37:08.40 1207.8621
111 Dincer Turkey TR-17-060025 24.08.2017 09:37:08.41 1207.8610
112 Team Deigner-Sun-Lin Germany CHN-17-0754467 24.08.2017 09:37:19.24 1206.6652
113 Bucsa Daniel Romania RO-17-0275063 24.08.2017 09:37:37.33 1204.6730
114 Stefan Radev & Maxim Kumanov Bulgaria BG-17-20277 24.08.2017 09:38:09.12 1201.1881
115 Tandemul Vlasin & Ruscovan Team Italy RO-17-40413 24.08.2017 09:38:12.51 1200.8176
116 Derby Halkidiki OLR Greece GR-17-0104527 24.08.2017 09:38:14.75 1200.5730
117 Vasilis Pislinas Greece GR-17-328667 24.08.2017 09:38:15.03 1200.5424
118 Karl Heinz Wichert 3 Germany DV-02618-17-170 24.08.2017 09:38:15.14 1200.5304
119 Deftu Robert + Catalin Romania RO-17-4001 24.08.2017 09:38:15.91 1200.4463
120 Lukacs Stefan Romania RO-17-370709 24.08.2017 09:38:16.50 1200.3819
121 Team Van Tilburg / Jovati Netherlands NL-17-3712831 24.08.2017 09:38:16.89 1200.3394
122 Team Koehoorn-Boekelo Netherlands NL-17-1580261 24.08.2017 09:38:17.58 1200.2641
123 Henry Sylvain France FR-17-012221 24.08.2017 09:38:17.97 1200.2215
124 Dirk Martens Belgium B-17-4175517 24.08.2017 09:38:18.11 1200.2062
125 Szigethi Sandor Hungary HU-17-261823 24.08.2017 09:38:19.38 1200.0676
126 Derby Riachos Portugal PT-17-7168294 24.08.2017 09:38:19.90 1200.0109
127 Henk de Weerd Netherlands NL-17-1345737 24.08.2017 09:38:20.02 1199.9978
128 Team Vinita Bulgaria BG-17-21794 24.08.2017 09:38:20.51 1199.9444
129 Tanase Alexandru Romania RO-17-184103 24.08.2017 09:38:22.40 1199.7382
130 Hamza Mihaela – Camelia Romania RO-17-498414 24.08.2017 09:38:22.53 1199.7241
131 Team Herbots Belgium B-17-2059926 24.08.2017 09:38:22.61 1199.7153
132 Miky & Cornel Romania RO-17-592605 24.08.2017 09:38:24.13 1199.5496
133 Garbatovski & Patrascu Republic Of Moldova MD-17-4548 24.08.2017 09:38:24.14 1199.5485
134 Team Steinbinder & Seniuc Germany DV-048-17-769 24.08.2017 09:38:25.95 1199.3513
135 Team Thorsten & Finn Leon Daum Germany DV-04939-17-1187 24.08.2017 09:38:26.52 1199.2891 Mr Lee
136 Team Koehoorn-Boekelo Netherlands NL-17-1580451 24.08.2017 09:38:26.68 1199.2717
137 Team Weis-Jungfleisch Germany DV-0263-17-34 24.08.2017 09:38:27.22 1199.2129
138 Dirk Martens Belgium B-17-4175529 24.08.2017 09:38:27.67 1199.1639
139 Cingoz & Ulufer Kardesler Turkey TR-17-158615 24.08.2017 09:38:29.36 1198.9798
140 Csorba Team Hungary HU-17-333085 24.08.2017 09:38:29.81 1198.9308
141 Caraba & Ususan Romania RO-17-6029205 24.08.2017 09:38:31.27 1198.7718
142 Regep Ozturk Turkey TR-17-120096 24.08.2017 09:38:32.15 1198.6760
143 Karl Heinz Wichert 1 Germany DV-02618-17-346 24.08.2017 09:38:32.95 1198.5889
144 Brebeanu Florian Romania RO-17-079340 24.08.2017 09:38:35.12 1198.3528
145 Ghica Ionut Bogdan Romania RO-17-186202 24.08.2017 09:38:35.41 1198.3213
146 Alfons Klaas Germany DV-0507-17-247 24.08.2017 09:38:37.13 1198.1342
147 Nagy Gyula Romania RO-17-256410 24.08.2017 09:38:39.53 1197.8732
148 Walter Zerner Austria AU-602-17-1297 24.08.2017 09:38:40.07 1197.8145
149 Dac Mândru Romania RO-17-6010803 24.08.2017 09:38:40.80 1197.7352
150 Theo Stemmann Germany DV-02803-17-408 24.08.2017 09:38:41.63 1197.6450
151 Dirk Martens Belgium B-17-4175533 24.08.2017 09:38:41.64 1197.6439
152 NOVA ZAGORA OLR Bulgaria BG-17-44222 24.08.2017 09:38:42.51 1197.5494
153 Team Verl Germany DV-0018-17-306 24.08.2017 09:38:43.03 1197.4929
154 Nagy Gyula Romania RO-17-256420 24.08.2017 09:38:43.04 1197.4918
155 Karl Heinz Wichert 3 Germany DV-02618-17-166 24.08.2017 09:38:45.22 1197.2550
156 Holland Unknown Netherlands NL-17-1534553 24.08.2017 09:38:50.73 1196.6570
157 Stefan + David + Dani Romania RO-17-009834 24.08.2017 09:38:53.55 1196.3511
158 Laro Ervin Italy IT-17-230205 24.08.2017 09:39:02.75 1195.3544
159 Ahmet Cavdaroglu Turkey TR-17-030069 24.08.2017 09:39:02.86 1195.3425
160 Maxim Kumanov & Stefan Radev Bulgaria BG-17-52051 24.08.2017 09:39:03.59 1195.2635
161 Team Verl Germany DV-0018-17-312 24.08.2017 09:39:07.18 1194.8751
162 Team Deigner-Sun-Lin Germany CHN-17-0754482 24.08.2017 09:39:07.65 1194.8242
163 Mehmet Metin Turkey TR-17-038056 24.08.2017 09:39:07.85 1194.8026
164 Dicu Viorel Romania RO-17-510061 24.08.2017 09:39:10.51 1194.5150
165 Team Onur Romania RO-17-003003 24.08.2017 09:39:13.31 1194.2124
166 Wilfried fur Loewen Germany DV-01217-17-521 24.08.2017 09:39:16.64 1193.8527
167 Leyer-Paloma-Segers Raising Team Belgium BE-17-5101148 24.08.2017 09:39:18.34 1193.6692 Turbo
168 Procop & Gurita Romania RO-17-180024 24.08.2017 09:39:22.93 1193.1740
169 Paul Popovici Austria AU-602-17-427 24.08.2017 09:39:29.28 1192.4895
170 Fam. Tampeanu Romania RO-17-170702 24.08.2017 09:39:39.87 1191.3497
171 Negut Ana Maria Romania RO-17-6010816 24.08.2017 09:39:49.95 1190.2669
172 Stefan + David + Dani Romania RO-17-009835 24.08.2017 09:40:06.12 1188.5339
173 Coman Catalin Romania RO-17-500122 24.08.2017 09:40:08.88 1188.2386
174 Florea Remus & Roxana Romania RO-17-3037620 24.08.2017 09:40:10.56 1188.0589
175 Team Verl Germany DV-0018-17-302 24.08.2017 09:40:18.21 1187.2415
176 Tayar & Stefan Turkey TR-17-147137 24.08.2017 09:40:18.34 1187.2276
177 Team Glasenapp Germany DV-0440-17-327 24.08.2017 09:40:19.18 1187.1379
178 Henk de Weerd Netherlands NL-17-1345740 24.08.2017 09:40:20.73 1186.9724
179 Christea Horia Romania RO-17-509806 24.08.2017 09:40:21.99 1186.8380
180 Matei & Ploscaru Italy IT-17-310015 24.08.2017 09:40:24.54 1186.5659
181 Nico van Veen Netherlands NL-17-1550654 24.08.2017 09:40:24.99 1186.5179
182 Baris Savaskan Turkey TR-17-144592 24.08.2017 09:40:30.96 1185.8815
183 Ahmet Guloglu & Muzaffer Kizil Turkey TR-17-147777 24.08.2017 09:40:51.16 1183.7334
184 Malescu Ciprian Romania RO-17-19824 24.08.2017 09:41:12.12 1181.5126
185 Team Van Tilburg / Jovati Netherlands NL-17-3712857 24.08.2017 09:41:38.62 1178.7167
186 Chirica Cornel Romania RO-17-19516 24.08.2017 09:41:40.30 1178.5399
187 Cristi Stan & Vladut Romania RO-17-6006708 24.08.2017 09:41:41.98 1178.3631
188 Matei & Ploscaru Italy IT-17-310029 24.08.2017 09:41:42.12 1178.3484
189 Tules Ialcin & Denis Romania RO-17-260294 24.08.2017 09:41:42.55 1178.3032
190 Karl Heinz Lang Germany DV-8596-17-581 24.08.2017 09:41:44.16 1178.1338
191 Leyer-Paloma-Segers Raising Team Belgium BE-17-5101156 24.08.2017 09:41:47.16 1177.8185 Carmen Ro Paula
192 Constantin Ungureanu Romania RO-17-022963 24.08.2017 09:41:56.37 1176.8513
193 Team OLR Romania RO-17-517051 24.08.2017 09:41:58.29 1176.6499
194 Team Koehoorn-Boekelo Netherlands NL-17-1580454 24.08.2017 09:41:59.70 1176.5020
195 Athanasios Kontogiannis Greece GR-17-0501343 24.08.2017 09:42:00.36 1176.4328
196 Dirk Martens Belgium B-17-4175501 24.08.2017 09:42:07.42 1175.6931
197 Ilhan Ibis-Lili Bulgaria RO-17-356337 24.08.2017 09:42:07.53 1175.6816
198 Team BAG Romania RO-17-5092603 24.08.2017 09:42:07.83 1175.6501
199 Karl Heinz Wichert 1 Germany DV-02618-17-352 24.08.2017 09:42:16.43 1174.7503
200 Fâsie Marian Romania RO-17-497855 24.08.2017 09:42:32.46 1173.0768
201 Caraba & Ususan Romania RO-17-6028025 24.08.2017 09:42:35.34 1172.7767
202 Cimpean Sebastian Romania IT-17-295515 24.08.2017 09:42:36.27 1172.6798
203 Alfy & Sahsha Romania RO-17-6036611 24.08.2017 09:42:37.37 1172.5652
204 Ilhan Ibis-Lili Bulgaria RO-17-356327 24.08.2017 09:42:38.89 1172.4069
205 Cimpean Sebastian Romania IT-17-295491 24.08.2017 09:42:41.21 1172.1653
206 Florea Remus & Roxana Romania RO-17-3037604 24.08.2017 09:42:41.93 1172.0904
207 Team Thorsten & Finn Leon Daum Germany DV-04939-17-1181 24.08.2017 09:42:52.42 1170.9997 Diamond
208 Ivan Dimitrov Bulgaria BG-17-71136 24.08.2017 09:43:06.63 1169.5254
209 Bichir Valentin Romania RO-17-487504 24.08.2017 09:43:07.69 1169.4155
210 Bucsa Daniel Romania RO-17-0275035 24.08.2017 09:43:08.83 1169.2974
211 Cazacu Alexandru Romania RO-17-006127 24.08.2017 09:43:08.86 1169.2943
212 Henk de Weerd Netherlands B-17-6083841 24.08.2017 09:43:14.59 1168.7011
213 Team Deigner-Sun-Lin Germany CHN-17-0754470 24.08.2017 09:43:16.57 1168.4963
214 Kaskadoru OLR Romania RO-17-11311 24.08.2017 09:43:29.95 1167.1139
215 Maxim Kumanov & Stefan Radev Bulgaria BG-17-52046 24.08.2017 09:43:30.94 1167.0118
216 Negut Ana Maria Romania RO-17-6010873 24.08.2017 09:43:35.03 1166.5899
217 Vasilis Pislinas Greece GR-17-328672 24.08.2017 09:43:37.27 1166.3590
218 Brebeanu Florian Romania RO-17-079367 24.08.2017 09:43:40.60 1166.0159
219 Alexander Gebel Germany DV-07407-17-2106 24.08.2017 09:43:43.36 1165.7317
220 Greg Team Poland PL-0262-17-11616 24.08.2017 09:43:49.33 1165.1174
221 Marcel Sangers Netherlands NL-17-1826108 24.08.2017 09:43:49.76 1165.0732
222 Marquart & Soehne Germany DV-09999-17-742 24.08.2017 09:43:53.95 1164.6425
223 Stefan Radev & Maxim Kumanov Bulgaria BG-17-20278 24.08.2017 09:43:55.06 1164.5285
224 Familie Soellner Germany DV-02733-17-683 24.08.2017 09:43:55.79 1164.4535
225 Fam. Tampeanu Romania RO-17-170701 24.08.2017 09:43:55.80 1164.4524
226 Ahmet Cavdaroglu Turkey TR-17-030255 24.08.2017 09:43:56.25 1164.4062
227 Florea Remus & Roxana Romania RO-17-3037614 24.08.2017 09:43:59.63 1164.0591
228 Team Duica Iulian Romania RO-17-12767 24.08.2017 09:44:01.70 1163.8467
229 Jan van de Pasch Netherlands NL-17-1457181 24.08.2017 09:44:05.43 1163.4641
230 Team Bertlich Germany DV-03164-17-502 24.08.2017 09:44:16.37 1162.3432
231 Team Verl Germany DV-0018-17-927 24.08.2017 09:44:16.71 1162.3085
232 Team Koehoorn-Boekelo Netherlands NL-17-1580158 24.08.2017 09:44:21.69 1161.7990
233 Vikont & Vikontesa Bulgaria BG-17-09189 24.08.2017 09:44:24.69 1161.4923
234 Regep Ozturk Turkey TR-17-120097 24.08.2017 09:44:25.47 1161.4126
235 Paksoy Kardesler Turkey TR-17-083322 24.08.2017 09:44:29.07 1161.0448
236 Team Onur Romania RO-17-003002 24.08.2017 09:44:45.82 1159.3368
237 Tataru Eugen & Gabriel Romania RO-17-482505 24.08.2017 09:44:46.97 1159.2197
238 Alfy & Sahsha Romania RO-17-6036609 24.08.2017 09:44:47.77 1159.1383
239 Furlan & Zampollo Italy Team Italy IT-17-302204 24.08.2017 09:44:51.77 1158.7313
240 Theo Stemmann Germany DV-02803-17-397 24.08.2017 09:44:52.88 1158.6184
241 Andrei Marius & Chean Romania RO-17-003117 24.08.2017 09:45:01.13 1157.7800
242 Nagy Gyula Romania RO-17-256413 24.08.2017 09:45:06.11 1157.2745
243 Vikont & Vikontesa Bulgaria BG-17-09142 24.08.2017 09:45:06.12 1157.2735
244 Team Duica Iulian Romania RO-17-12766 24.08.2017 09:45:12.96 1156.5799
245 Bulent Mavis Germany DV-07212-17-387 24.08.2017 09:45:13.74 1156.5008
246 Petrita Leonard & Ionut Romania RO-17-6036311 24.08.2017 09:45:22.78 1155.5856
247 Ntellas Giorgios Greece GR-17-0104870 24.08.2017 09:45:24.87 1155.3742
248 Constantin Ungureanu Romania RO-17-022965 24.08.2017 09:45:31.59 1154.6950
249 Miky & Cornel Romania RO-17-592615 24.08.2017 09:45:32.44 1154.6092
250 Lukacs Stefan Romania RO-17-370702 24.08.2017 09:45:34.91 1154.3598
251 Olteanu Cosmin Romania RO-17-17245 24.08.2017 09:45:37.63 1154.0852
252 Tanase Alexandru Romania RO-17-184112 24.08.2017 09:45:38.11 1154.0368
253 Tanase Alin-Doru & Rusu Raimond Romania RO-17-021822 24.08.2017 09:45:39.21 1153.9258
254 Andrei Marius & Silviu Spiridon Romania RO-17-003321 24.08.2017 09:45:40.70 1153.7756
255 Ungureanu Auras Romania RO-17-27043 24.08.2017 09:45:41.73 1153.6717
256 Petrita Leonard & Ionut Romania GB-17-39404 24.08.2017 09:45:45.87 1153.2544
257 Walter Zerner Austria AU-602-17-1284 24.08.2017 09:45:50.15 1152.8233
258 Olteanu Cosmin Romania RO-17-17223 24.08.2017 09:46:07.72 1151.0571
259 Team Verl Germany DV-0018-17-310 24.08.2017 09:46:45.22 1147.3053
260 G&D Aslanidis Greece GR-17-1033734 24.08.2017 09:46:48.98 1146.9305
261 Tules Ialcin & Denis Romania RO-17-260257 24.08.2017 09:47:00.76 1145.7577
262 Team Verl Germany DV-0018-17-418 24.08.2017 09:47:13.29 1144.5130
263 Matei & Ploscaru Italy IT-17-310016 24.08.2017 09:47:21.66 1143.6830
264 Alexander Gebel Germany DV-07407-17-2150 24.08.2017 09:47:31.37 1142.7216
265 Andrei Marius & Silviu Spiridon Romania RO-17-003257 24.08.2017 09:47:37.33 1142.1323
266 Cristiano Paltrinieri Italy IT-17-242062 24.08.2017 09:47:38.40 1142.0266
267 Dirk Martens Belgium B-17-4175525 24.08.2017 09:47:39.72 1141.8962
268 Tanase Alexandru Romania RO-17-184119 24.08.2017 09:47:40.83 1141.7865
269 Team Vinita Bulgaria BG-17-21887 24.08.2017 09:47:41.64 1141.7065
270 Caraba & Ususan Romania RO-17-6028001 24.08.2017 09:47:43.56 1141.5170
271 Team Ion Mihai & Cristian Romania RO-17-4050026 24.08.2017 09:47:44.96 1141.3788
272 Giani Urda & Gabriel Radu Romania RO-17-5093134 24.08.2017 09:47:45.99 1141.2771
273 Team OLR Romania RO-17-517033 24.08.2017 09:47:48.78 1141.0019
274 Henk de Weerd Netherlands NL-17-1345748 24.08.2017 09:47:49.42 1140.9388
275 Team Verl Germany DV-0018-17-822 24.08.2017 09:47:52.19 1140.6657
276 Koroglu Karakurt Pigeons Turkey TR-17-162514 24.08.2017 09:47:52.64 1140.6213
277 Gaust Gherhard Germany DV-0244-17-559 24.08.2017 09:47:53.51 1140.5356
278 Cristian Neacsu Romania RO-17-530040 24.08.2017 09:47:53.94 1140.4932
279 Team Castleview United Kingdom GB-17-63348 24.08.2017 09:47:54.84 1140.4045
280 Florin – Derby Corabia Romania RO-17-533151 24.08.2017 09:48:07.96 1139.1134
281 Lukacs Stefan Romania RO-17-370713 24.08.2017 09:48:08.80 1139.0308
282 Emeralds & Diamonds Dynasty United Kingdom GB-17-16558 24.08.2017 09:48:09.64 1138.9482
283 Tamer Sanli Turkey TR-17-036030 24.08.2017 09:48:10.41 1138.8726
284 Caraba & Ususan Romania RO-17-6028056 24.08.2017 09:48:11.67 1138.7488
285 Miky & Cornel Romania RO-17-592606 24.08.2017 09:48:17.15 1138.2107
286 Team Castleview United Kingdom GB-17-63334 24.08.2017 09:48:28.31 1137.1164
287 Stefan Radev & Maxim Kumanov Bulgaria BG-17-20233 24.08.2017 09:48:29.75 1136.9754
288 Karl Heinz Wichert 2 Germany DV-02618-17-306 24.08.2017 09:48:32.83 1136.6738
289 Petrita Leonard & Ionut Romania GB-17-39416 24.08.2017 09:48:48.29 1135.1626
290 Frincu Mihai Romania RO-17-178110 24.08.2017 09:49:02.64 1133.7635
291 G&D Aslanidis Greece GR-17-1033729 24.08.2017 09:49:35.02 1130.6190
292 Team Verl Germany DV-0018-17-930 24.08.2017 09:49:43.81 1129.7685
293 Svilen Penkov Romania BG-17-356938 24.08.2017 09:49:50.23 1129.1480
294 Suleyman & Namik & Celal Turkey TR-17-034407 24.08.2017 09:49:51.07 1129.0669
295 Dirk Martens Belgium B-17-4175532 24.08.2017 09:49:58.14 1128.3845
296 Karl Heinz Lang Germany DV-8596-17-626 24.08.2017 09:50:04.21 1127.7993
297 Karl Heinz Wichert 2 Germany DV-02618-17-329 24.08.2017 09:50:09.74 1127.2667
298 Artur Mone Albania GR-17-915407 24.08.2017 09:50:18.66 1126.4087
299 Ludviksen-Balint Norway NOR-080-17-1211 24.08.2017 09:50:27.03 1125.6047
300 Habaci & Arcaleanu Romania RO-17-6025340 24.08.2017 09:50:56.71 1122.7631
301 Dac Mândru Romania RO-17-6091855 24.08.2017 09:50:57.09 1122.7268
302 Kurnaz & Stickelbroeck Netherlands NL-17-1454015 24.08.2017 09:50:59.05 1122.5397
303 Team Giurca Petre & Marian Romania IT-17-000369 24.08.2017 09:50:59.46 1122.5005
304 Onofrei Ioan Romania RO-17-262017 24.08.2017 09:50:59.87 1122.4614
305 Cristiano Paltrinieri Italy IT-17-242031 24.08.2017 09:51:00.89 1122.3640
306 Nagy Gyula Romania RO-17-256419 24.08.2017 09:51:01.27 1122.3278
307 Bondila Emil & Nicky Romania RO-17-000514 24.08.2017 09:51:01.40 1122.3154
308 Ferhat Gulez Turkey TR-17-030539 24.08.2017 09:51:03.13 1122.1503
309 Team Flavigny France FR-17-218935 24.08.2017 09:51:06.59 1121.8203
310 Alexander Gebel Germany DV-07407-17-2140 24.08.2017 09:51:07.02 1121.7793
311 Vikont & Vikontesa Bulgaria BG-17-09173 24.08.2017 09:51:07.50 1121.7336
312 Ilhan Ibis-Lili Bulgaria RO-17-356322 24.08.2017 09:51:09.46 1121.5468
313 Muntean Vasile & Mihai Romania RO-17-0013914 24.08.2017 09:51:11.81 1121.3229
314 Muntean Vasile & Mihai Romania RO-17-0013912 24.08.2017 09:51:14.42 1121.0743
315 Omer Durak Turkey TR-17-132012 24.08.2017 09:51:17.51 1120.7802
316 Romania Golden Pigeons Romania RO-17-502669 24.08.2017 09:51:17.62 1120.7697
317 Dicu Viorel Romania RO-17-510068 24.08.2017 09:51:22.22 1120.3322
318 Florin – Derby Corabia Romania RO-17-533157 24.08.2017 09:51:26.09 1119.9643
319 Team Sporting Pigeons Portugal PT-17-7117198 24.08.2017 09:51:26.49 1119.9263
320 Ungureanu Auras Romania RO-17-27023 24.08.2017 09:51:41.66 1118.4867
321 Stefan Radev & Maxim Kumanov Bulgaria BG-17-20272 24.08.2017 09:51:47.64 1117.9203
322 Bucur Catalin Romania RO-17-4004210 24.08.2017 09:51:48.90 1117.8010
323 Paksoy Kardesler Turkey TR-17-083320 24.08.2017 09:51:51.18 1117.5852
324 Omer Durak Turkey TR-17-147108 24.08.2017 09:51:53.28 1117.3865
325 Ilhan Ibis-Lili Bulgaria BG-17-76318 24.08.2017 09:51:54.60 1117.2617
326 G&D Aslanidis Greece GR-17-1033783 24.08.2017 09:51:57.27 1117.0093
327 Lupoiu Florentin Romania RO-17-192212 24.08.2017 09:52:04.14 1116.3603
328 Walter Zerner Austria AU-602-17-1282 24.08.2017 09:52:06.64 1116.1243
329 Costa del Sol Spain ESP-17-200288 24.08.2017 09:52:07.52 1116.0412
330 Cingoz & Ulufer Kardesler Turkey TR-17-083862 24.08.2017 09:52:08.84 1115.9167
331 Bucsa Daniel Romania RO-17-0275089 24.08.2017 09:52:12.03 1115.6158
332 Baris Savaskan Turkey TR-17-144585 24.08.2017 09:52:12.12 1115.6073
333 Mos Daniel Romania RO-17-3079506 24.08.2017 09:52:12.52 1115.5696
334 Team Onur Romania RO-17-003004 24.08.2017 09:52:14.84 1115.3509
335 Grigorescu Florin Romania RO-17-009539 24.08.2017 09:52:20.15 1114.8507
336 Team Adi Ursulet Romania RO-17-12674 24.08.2017 09:52:20.55 1114.8131
337 Tamer Sanli Turkey TR-17-036022 24.08.2017 09:52:21.86 1114.6898
338 Ilhan Ibis-Lili Bulgaria RO-17-356338 24.08.2017 09:52:47.21 1112.3086
339 Mos Daniel Romania RO-17-3079502 24.08.2017 09:52:48.09 1112.2261
340 Laro Ervin Italy IT-17-230235 24.08.2017 09:52:54.91 1111.5874
341 Badiceanu & Ionut Romania RO-17-081034 24.08.2017 09:52:55.39 1111.5424
342 Team Castleview United Kingdom GB-17-63323 24.08.2017 09:53:00.96 1111.0213
343 Dirk Martens Belgium B-17-4175513 24.08.2017 09:53:09.96 1110.1804
344 Artur Mone Albania GR-17-0915426 24.08.2017 09:53:14.23 1109.7818
345 Furlan & Zampollo Italy Team Italy IT-17-302201 24.08.2017 09:53:39.53 1107.4262
346 Henk de Weerd Netherlands NL-17-1345707 24.08.2017 09:53:39.61 1107.4188
347 Ghiacci L & Camagni E Italy PL-0223-17-7803 24.08.2017 09:53:41.52 1107.2414
348 Cristopf Franz Germany DV-03056-17-561 24.08.2017 09:53:43.24 1107.0816
349 Cristopf Franz Germany DV-03056-17-562 24.08.2017 09:53:46.11 1106.8152
350 Alexander Gebel Germany DV-07407-17-2113 24.08.2017 09:53:46.88 1106.7438
351 Alfons Klaas Germany DV-0507-17-258 24.08.2017 09:53:47.72 1106.6658
352 F Baris & Meulenberg Netherlands NL-17-1427696 24.08.2017 09:53:47.82 1106.6565
353 Garbatovski & Patrascu Republic Of Moldova MD-17-4546 24.08.2017 09:53:54.30 1106.0557
354 Nico van Veen Netherlands NL-17-1550656 24.08.2017 09:54:00.63 1105.4693
355 Vikont & Vikontesa Bulgaria BG-17-09141 24.08.2017 09:54:06.17 1104.9567
356 Team Coldea & Basch Romania RO-17-136158 24.08.2017 09:54:09.22 1104.6746
357 Peter Luikens Netherlands NL-17-4707061 24.08.2017 09:54:19.76 1103.7011
358 Nihat Ersay Turkey TR-17-194000 24.08.2017 09:54:42.50 1101.6065
359 Roman Jud Switzerland CH-17-4845 24.08.2017 09:54:57.23 1100.2540
360 Ilhan Ibis-Lili Bulgaria BG-17-76314 24.08.2017 09:55:17.40 1098.4073
361 Matei & Ploscaru Italy IT-17-310073 24.08.2017 09:55:32.70 1097.0106
362 Team Sporting Pigeons Portugal PT-17-7117199 24.08.2017 09:55:36.83 1096.6342
363 Karl Heinz Wichert 2 Germany DV-02618-17-338 24.08.2017 09:55:39.17 1096.4211
364 Henk de Weerd Netherlands NL-17-1345715 24.08.2017 09:55:40.85 1096.2681
365 Horvath Szabolcs Hungary HU-17-269976 24.08.2017 09:55:41.28 1096.2290
366 Svilen Penkov Romania BG-17-356919 24.08.2017 09:55:48.02 1095.6157
367 Team Visser-MeyBoom Netherlands NL-17-1112115 24.08.2017 09:56:18.58 1092.8437
368 Team Adi Ursulet Romania RO-17-004723 24.08.2017 09:56:18.66 1092.8365
369 Henk de Weerd Netherlands NL-17-1345732 24.08.2017 09:56:19.09 1092.7976
370 Bondila Emil & Nicky Romania RO-17-000535 24.08.2017 09:56:19.12 1092.7948
371 Dimitar Todorov Bulgaria BG-17-77053 24.08.2017 09:56:19.67 1092.7451
372 Andrei Marius & Chean Romania RO-17-003422 24.08.2017 09:56:23.51 1092.3978
373 Harrie van Boxmeer Netherlands NL-17-1449052 24.08.2017 09:56:23.55 1092.3942
374 Noragiu Paul Romania RO-17-001373 24.08.2017 09:56:24.80 1092.2812
375 Stefan Radev & Maxim Kumanov Bulgaria BG-17-20221 24.08.2017 09:56:30.89 1091.7310
376 Team Van Tilburg / Jovati Netherlands NL-17-3712811 24.08.2017 09:57:00.50 1089.0640
377 Team Sporting Pigeons Portugal PT-17-7116458 24.08.2017 09:57:03.30 1088.8125
378 Banu Constantin Romania RO-17-4098010 24.08.2017 09:57:03.66 1088.7801
379 Emeralds & Diamonds Dynasty United Kingdom GB-17-16568 24.08.2017 09:57:04.77 1088.6804
380 Team Ruse Bulgaria BG-17-70304 24.08.2017 09:57:09.95 1088.2155
381 Karl Heinz Wichert 1 Germany DV-02618-17-359 24.08.2017 09:57:12.21 1088.0128
382 Brebeanu Florian Romania RO-17-079312 24.08.2017 09:57:14.10 1087.8434
383 Borimes & Svilen Pencov Bulgaria BG-17-72015 24.08.2017 09:57:15.56 1087.7125
384 Theo & Markus Lecke Germany DV-04087-17-105 24.08.2017 09:57:15.57 1087.7116
385 Derby Halkidiki OLR Greece GR-17-0104532 24.08.2017 09:57:23.37 1087.0129
386 Team Giurca Petre & Marian Romania IT-17-000367 24.08.2017 09:57:23.74 1086.9798
387 Team Giurca Petre & Marian Romania IT-17-202628 24.08.2017 09:57:27.45 1086.6478
388 G&D Aslanidis Greece GR-17-1033732 24.08.2017 09:57:29.84 1086.4341
389 Koroglu Karakurt Pigeons Turkey TR-17-147783 24.08.2017 09:57:41.10 1085.4281
390 Vikont & Vikontesa Bulgaria BG-17-09156 24.08.2017 09:58:20.17 1081.9521
391 Frysian Basterds Netherlands NL-17-1599454 24.08.2017 09:58:31.15 1080.9793
392 Karl Heinz Lang Germany DV-8596-17-618 24.08.2017 09:59:22.76 1076.4298
393 Derby Riachos Portugal PT-17-7168047 24.08.2017 09:59:37.30 1075.1550
394 Spirou Kostas Greece GR-17-917734 24.08.2017 09:59:51.03 1073.9539
395 Roman Jud Switzerland CH-17-4842 24.08.2017 09:59:52.29 1073.8438
396 Stefan Radev & Maxim Kumanov Bulgaria BG-17-20274 24.08.2017 10:00:08.77 1072.4061
397 Voinea Dorin Romania RO-17-6095132 24.08.2017 10:00:11.93 1072.1309
398 Dirk Martens Belgium B-17-4175531 24.08.2017 10:00:24.93 1071.0000
399 Greg Team Poland PL-0262-17-11230 24.08.2017 10:00:42.40 1069.4841
400 Laura Sunshine Team Germany DV-05412-17-663 24.08.2017 10:00:46.11 1069.1627
401 Marquart & Soehne Germany DV-09999-17-803 24.08.2017 10:00:46.51 1069.1280
402 Cazacu Alexandru Romania RO-17-006118 24.08.2017 10:00:47.23 1069.0657
403 Team Weis-Jungfleisch Germany DV-0263-17-54 24.08.2017 10:00:47.35 1069.0553
404 Team Deigner-Sun-Lin Germany CHN-17-0754466 24.08.2017 10:00:51.12 1068.7290
405 Hamza Mihaela – Camelia Romania RO-17-498430 24.08.2017 10:00:55.46 1068.3536
406 Bucur Catalin Romania RO-17-4004228 24.08.2017 10:00:56.67 1068.2490
407 Team Koehoorn-Boekelo Netherlands NL-17-1580453 24.08.2017 10:00:57.16 1068.2066
408 Tayar & Barkin Basaran Turkey TR-17-147056 24.08.2017 10:00:58.13 1068.1228
409 G&D Aslanidis Greece GR-17-1033794 24.08.2017 10:01:01.77 1067.8083
410 Ionesi Constantin & Ioan Romania RO-17-304409 24.08.2017 10:01:03.54 1067.6554
411 Peter Luikens Netherlands NL-17-4707081 24.08.2017 10:01:06.30 1067.4171
412 Lupoiu Florentin Romania RO-17-192213 24.08.2017 10:01:08.93 1067.1901
413 Harrie van Boxmeer Netherlands NL-17-1449045 24.08.2017 10:01:09.94 1067.1030
414 Theo Stemmann Germany DV-02803-17-400 24.08.2017 10:01:14.17 1066.7382
415 Team Vinita Bulgaria BG-17-21777 24.08.2017 10:01:18.98 1066.3237
416 Karl Heinz Wichert 1 Germany DV-02618-17-348 24.08.2017 10:01:25.34 1065.7762
417 Ady Colniceanu – Superstar Race Romania RO-17-460213 24.08.2017 10:01:25.41 1065.7701
418 Olteanu Cosmin Romania RO-17-17193 24.08.2017 10:01:31.36 1065.2584
419 Maxim Kumanov & Stefan Radev Bulgaria BG-17-52055 24.08.2017 10:02:00.17 1062.7874
420 Team BAG Romania RO-17-17711 24.08.2017 10:02:09.48 1061.9913
421 Karl Heinz Lang Germany DV-8596-17-576 24.08.2017 10:02:22.49 1060.8809
422 Koroglu Karakurt Pigeons Turkey TR-17-147780 24.08.2017 10:02:23.56 1060.7897
423 Andrusca Nicu Romania RO-17-6054725 24.08.2017 10:02:37.32 1059.6180
424 Ahmet Cavdaroglu Turkey TR-17-030260 24.08.2017 10:03:03.15 1057.4254
425 Andrei Marius & Mitu Romania RO-17-003385 24.08.2017 10:03:03.59 1057.3881
426 Theo & Markus Lecke Germany DV-04087-17-99 24.08.2017 10:03:06.84 1057.1129
427 Szigethi Sandor Hungary HU-17-261824 24.08.2017 10:03:07.73 1057.0376
428 Theo Stemmann Germany DV-02803-17-383 24.08.2017 10:03:08.55 1056.9682
429 Voinea Dorin Romania RO-17-180946 24.08.2017 10:03:10.41 1056.8108
430 Team OLR Romania RO-17-517034 24.08.2017 10:03:10.53 1056.8006
431 Ivan Dimitrov Bulgaria BG-17-73383 24.08.2017 10:03:12.95 1056.5959
432 Bucur Catalin Romania RO-17-4004235 24.08.2017 10:03:13.54 1056.5460
433 Dac Mândru Romania RO-17-6010802 24.08.2017 10:03:15.21 1056.4048
434 Dian & Rosi Fotevi Bulgaria BG-17-18697 24.08.2017 10:03:15.31 1056.3964
435 Fam. Tampeanu Romania RO-17-170703 24.08.2017 10:03:19.28 1056.0608
436 Ata Kardesler Turkey TR-17-039710 24.08.2017 10:03:21.85 1055.8437
437 Garbatovski & Patrascu Republic Of Moldova MD-17-4549 24.08.2017 10:03:27.11 1055.3997
438 Team Van Tilburg / Jovati Netherlands NL-17-3712852 24.08.2017 10:03:31.37 1055.0403
439 Leyer-Paloma-Segers Raising Team Belgium BE-17-5101149 24.08.2017 10:03:32.18 1054.9720 Nine
440 Noragiu Paul Romania RO-17-001386 24.08.2017 10:03:34.07 1054.8127
441 Ahmet Cavdaroglu Turkey TR-17-030073 24.08.2017 10:03:40.27 1054.2904
442 Team Onur Romania RO-17-003001 24.08.2017 10:04:09.64 1051.8230
443 Derby Riachos Portugal PT-17-7168284 24.08.2017 10:05:29.22 1045.1952
444 Mos Daniel Romania RO-17-3079501 24.08.2017 10:05:43.20 1044.0395
445 G&D Aslanidis Greece GR-17-1033744 24.08.2017 10:05:48.55 1043.5979
446 Familia Lazar-Pancota Romania RO-17-0599117 24.08.2017 10:05:52.39 1043.2812
447 Ludviksen-Balint Norway NOR-080-17-1261 24.08.2017 10:06:04.02 1042.3231
448 Romania Golden Pigeons Romania RO-17-502652 24.08.2017 10:07:04.28 1037.3868
449 Team Flavigny France FR-17-218943 24.08.2017 10:07:07.71 1037.1072
450 Banu Constantin Romania RO-17-4098013 24.08.2017 10:07:08.25 1037.0632
451 Moraru & Sori Romania RO-17-4099926 24.08.2017 10:07:08.27 1037.0616
452 Columbodrom Cajvana Romania RO-17-6073339 24.08.2017 10:07:14.15 1036.5827
453 G&D Aslanidis Greece GR-17-1033766 24.08.2017 10:07:40.61 1034.4333
454 Baris Savaskan Turkey TR-17-144570 24.08.2017 10:08:58.53 1028.1551
455 Catalin BGS Romania RO-17-507033 24.08.2017 10:09:22.32 1026.2534
456 Jan van de Pasch Netherlands NL-17-1457167 24.08.2017 10:09:54.59 1023.6851
457 Olteanu Cosmin Romania RO-17-17188 24.08.2017 10:09:56.60 1023.5256
458 Andrusca Nicu Romania RO-17-6054732 24.08.2017 10:10:15.70 1022.0120
459 Hamza Mihaela – Camelia Romania RO-17-498412 24.08.2017 10:10:18.81 1021.7659
460 Procop & Gurita Romania RO-17-180007 24.08.2017 10:10:57.76 1018.6946
461 Lukacs Stefan Romania RO-17-370714 24.08.2017 10:11:48.70 1014.7055
462 Emiel Denys Belgium BE-17-3017551 24.08.2017 10:11:53.50 1014.3313
463 Karl Heinz Lang Germany DV-8596-17-534 24.08.2017 10:11:57.95 1013.9845
464 Team Ion Mihai & Cristian Romania RO-17-4047226 24.08.2017 10:12:01.50 1013.7081
465 Team Koehoorn-Boekelo Netherlands NL-17-1580456 24.08.2017 10:12:06.07 1013.3525
466 NOVA ZAGORA OLR Bulgaria BG-17-44156 24.08.2017 10:12:08.38 1013.1728
467 OLR Levin Haus Romania RO-17-112247 24.08.2017 10:13:29.11 1006.9333
468 Fam. Tampeanu Romania RO-17-170716 24.08.2017 10:13:35.89 1006.4128
469 Onofrei Ioan Romania RO-17-262911 24.08.2017 10:13:36.45 1006.3699
470 Lukacs Stefan Romania RO-17-370712 24.08.2017 10:13:37.72 1006.2724
471 Zdenek Pavlik Czech Republic DV-05927-17-437 24.08.2017 10:13:40.61 1006.0508
472 Lukacs Stefan Romania RO-17-370721 24.08.2017 10:13:49.83 1005.3443
473 Voinea Dorin Romania RO-17-6095143 24.08.2017 10:14:00.47 1004.5303
474 Team Koehoorn-Boekelo Netherlands NL-17-1580278 24.08.2017 10:14:07.43 1003.9985
475 Alexander Gebel Germany DV-07407-17-2147 24.08.2017 10:14:24.52 1002.6951
476 Dac Mândru Romania RO-17-6091858 24.08.2017 10:14:26.90 1002.5139
477 Ivan Dimitrov Bulgaria BG-17-71161 24.08.2017 10:14:27.50 1002.4682
478 Henk de Weerd Netherlands NL-17-1347338 24.08.2017 10:14:28.94 1002.3586
479 Olteanu Cosmin Romania RO-17-17191 24.08.2017 10:14:44.78 1001.1544
480 Tataru Eugen & Gabriel Romania RO-17-482525 24.08.2017 10:16:13.27 994.4799
481 Team Sporting Pigeons Portugal PT-17-7118196 24.08.2017 10:16:44.14 992.1724
482 Nitu Robert Petre Italy IT-17-000941 24.08.2017 10:17:05.79 990.5604
483 Team Giurca Petre & Marian Romania IT-17-202606 24.08.2017 10:17:51.84 987.1491
484 Ady Colniceanu – Superstar Race Romania RO-17-460205 24.08.2017 10:18:34.41 984.0164
485 Borimes & Svilen Pencov Bulgaria BG-17-72049 24.08.2017 10:18:47.51 983.0564
486 Greg Team Poland PL-0262-17-11226 24.08.2017 10:19:13.07 981.1887
487 Alexander Gebel Germany DV-07407-17-2058 24.08.2017 10:19:41.55 979.1159
488 Andrusca Nicu Romania RO-17-6054739 24.08.2017 10:20:23.49 976.0794
489 Emeralds & Diamonds Dynasty United Kingdom GB-17-16579 24.08.2017 10:21:11.86 972.6007
490 Team Verl Germany DV-0018-17-813 24.08.2017 10:21:14.01 972.4466
491 Team Stranvezky & Huba Romania RO-17-138707 24.08.2017 10:23:42.36 961.9337
492 Karl Heinz Lang Germany DV-8596-17-623 24.08.2017 10:23:44.23 961.8026
493 Mehmet Metin Turkey TR-17-038058 24.08.2017 10:23:47.53 961.5714
494 Bichir Valentin Romania RO-17-487537 24.08.2017 10:23:49.72 961.4180
495 Team Vinita Bulgaria BG-17-21776 24.08.2017 10:24:09.24 960.0531
496 Petrita Leonard & Ionut Romania RO-17-6036326 24.08.2017 10:24:45.38 957.5362
497 Roman Jud Switzerland CH-17-4821 24.08.2017 10:24:52.37 957.0509
498 Suleyman & Namik & Celal Turkey TR-17-039027 24.08.2017 10:25:05.59 956.1344
499 Florea Remus & Roxana Romania RO-17-3037630 24.08.2017 10:25:06.65 956.0610
500 Ungureanu Auras Romania RO-17-27016 24.08.2017 10:25:18.48 955.2425

KALTILIMCI SAYISI FAZLA OLDUĞUNDAN ÜLKEMIZI TEMSIL EDEN ARKADASLARIMIZ AYRI OLARAK LISTELENMISTIR.

Rank Fancier Country Pigeon Arrival Speed [m/min] Pigeon Name
7 Koroglu Karakurt Pigeons Turkey TR-17-147789 24.08.2017 09:25:28.64 1290.4941
30 Omer Durak Turkey TR-17-132011 24.08.2017 09:29:21.82 1261.7308
32 Baris Savaskan Turkey TR-17-144603 24.08.2017 09:29:36.86 1259.9195
34 Ferhat Gulez Turkey TR-17-030546 24.08.2017 09:29:37.25 1259.8726
43 Dincer Turkey TR-17-060030 24.08.2017 09:32:55.52 1236.4737
49 Cingoz & Ulufer Kardesler Turkey TR-17-158613 24.08.2017 09:34:39.79 1224.5137
58 Ferhat Gulez Turkey TR-17-030557 24.08.2017 09:34:44.41 1223.9891
76 Ahmet Guloglu & Muzaffer Kizil Turkey TR-17-162508 24.08.2017 09:35:10.97 1220.9820
83 Cingoz & Ulufer Kardesler Turkey TR-17-158048 24.08.2017 09:35:39.56 1217.7616
87 Tamer Sanli Turkey TR-17-036036 24.08.2017 09:35:47.97 1216.8175
100 Ahmet Guloglu & Muzaffer Kizil Turkey TR-17-147831 24.08.2017 09:36:11.83 1214.1470
111 Dincer Turkey TR-17-060025 24.08.2017 09:37:08.41 1207.8610
139 Cingoz & Ulufer Kardesler Turkey TR-17-158615 24.08.2017 09:38:29.36 1198.9798
142 Regep Ozturk Turkey TR-17-120096 24.08.2017 09:38:32.15 1198.6760
159 Ahmet Cavdaroglu Turkey TR-17-030069 24.08.2017 09:39:02.86 1195.3425
163 Mehmet Metin Turkey TR-17-038056 24.08.2017 09:39:07.85 1194.8026
176 Tayar & Stefan Turkey TR-17-147137 24.08.2017 09:40:18.34 1187.2276
182 Baris Savaskan Turkey TR-17-144592 24.08.2017 09:40:30.96 1185.8815
183 Ahmet Guloglu & Muzaffer Kizil Turkey TR-17-147777 24.08.2017 09:40:51.16 1183.7334
226 Ahmet Cavdaroglu Turkey TR-17-030255 24.08.2017 09:43:56.25 1164.4062
234 Regep Ozturk Turkey TR-17-120097 24.08.2017 09:44:25.47 1161.4126
235 Paksoy Kardesler Turkey TR-17-083322 24.08.2017 09:44:29.07 1161.0448
276 Koroglu Karakurt Pigeons Turkey TR-17-162514 24.08.2017 09:47:52.64 1140.6213
283 Tamer Sanli Turkey TR-17-036030 24.08.2017 09:48:10.41 1138.8726
294 Suleyman & Namik & Celal Turkey TR-17-034407 24.08.2017 09:49:51.07 1129.0669
308 Ferhat Gulez Turkey TR-17-030539 24.08.2017 09:51:03.13 1122.1503
315 Omer Durak Turkey TR-17-132012 24.08.2017 09:51:17.51 1120.7802
323 Paksoy Kardesler Turkey TR-17-083320 24.08.2017 09:51:51.18 1117.5852
324 Omer Durak Turkey TR-17-147108 24.08.2017 09:51:53.28 1117.3865
330 Cingoz & Ulufer Kardesler Turkey TR-17-083862 24.08.2017 09:52:08.84 1115.9167
332 Baris Savaskan Turkey TR-17-144585 24.08.2017 09:52:12.12 1115.6073
337 Tamer Sanli Turkey TR-17-036022 24.08.2017 09:52:21.86 1114.6898
358 Nihat Ersay Turkey TR-17-194000 24.08.2017 09:54:42.50 1101.6065
389 Koroglu Karakurt Pigeons Turkey TR-17-147783 24.08.2017 09:57:41.10 1085.4281
408 Tayar & Barkin Basaran Turkey TR-17-147056 24.08.2017 10:00:58.13 1068.1228
422 Koroglu Karakurt Pigeons Turkey TR-17-147780 24.08.2017 10:02:23.56 1060.7897
424 Ahmet Cavdaroglu Turkey TR-17-030260 24.08.2017 10:03:03.15 1057.4254
436 Ata Kardesler Turkey TR-17-039710 24.08.2017 10:03:21.85 1055.8437
441 Ahmet Cavdaroglu Turkey TR-17-030073 24.08.2017 10:03:40.27 1054.2904
454 Baris Savaskan Turkey TR-17-144570 24.08.2017 10:08:58.53 1028.1551
493 Mehmet Metin Turkey TR-17-038058 24.08.2017 10:23:47.53 961.5714
498 Suleyman & Namik & Celal Turkey TR-17-039027 24.08.2017 10:25:05.59 956.1344
507 Bulduk Kardesler Turkey TR-17-084888 24.08.2017 10:27:58.12 944.3330
509 Bulduk Kardesler Turkey TR-17-084890 24.08.2017 10:28:56.87 940.3806
521 Koroglu Karakurt Pigeons Turkey TR-17-147815 24.08.2017 10:31:04.89 931.8816
525 Ismail Ozturk Turkey TR-17-039139 24.08.2017 10:33:03.56 924.1394
538 Dincer Turkey TR-17-060019 24.08.2017 10:38:13.69 904.5005
543 Tayar & Barkin Basaran Turkey TR-17-147059 24.08.2017 10:38:30.46 903.4623
550 Mehmet Metin Turkey TR-17-038055 24.08.2017 10:40:08.73 897.4262
558 Edip Bekil & Bulent Yilmaz Turkey TR-17-005018 24.08.2017 10:42:37.95 888.4133
560 Tamer Sanli Turkey TR-17-036031 24.08.2017 10:43:51.37 884.0448
562 Nurhan Bahtiar Turkey TR-17-036270 24.08.2017 10:44:53.84 880.3615
570 Ferhat Gulez Turkey TR-17-030545 24.08.2017 10:50:28.90 861.1185
576 Ahmet Cavdaroglu Turkey TR-17-030061 24.08.2017 10:53:03.95 852.4956
611 Ahmet Guloglu & Muzaffer Kizil Turkey TR-17-147784 24.08.2017 11:07:17.64 807.9502
644 Tamer Sanli Turkey TR-17-036040 24.08.2017 11:34:01.40 735.7285
648 Ismail Ozturk Turkey TR-17-039109 24.08.2017 11:38:33.03 724.7558
650 Cingoz & Ulufer Kardesler Turkey TR-17-158040 24.08.2017 11:41:50.87 716.9677
656 Tayar & Barkin Basaran Turkey TR-17-147014 24.08.2017 11:45:35.57 708.3228
657 Ahmet Cavdaroglu Turkey TR-17-030254 24.08.2017 11:47:09.24 704.7803
664 Nihat Ersay Turkey TR-17-083033 24.08.2017 11:58:20.93 680.3798
672 Cingoz & Ulufer Kardesler Turkey TR-17-158619 24.08.2017 12:14:18.28 648.3848
673 Paksoy Kardesler Turkey TR-17-083332 24.08.2017 12:18:29.10 640.4938
679 Mustafa Yilmaz Tupcu Turkey TR-17-035865 24.08.2017 12:33:06.16 614.3490
684 Bulduk Kardesler Turkey TR-17-084891 24.08.2017 12:40:05.65 602.5843
700 Paksoy Kardesler Turkey TR-17-083321 24.08.2017 13:59:47.29 494.6175
706 Edip Bekil & Bulent Yilmaz Turkey TR-17-005037 24.08.2017 15:02:19.74 433.6437
716 Koroglu Karakurt Pigeons Turkey TR-17-147883 24.08.2017 16:01:36.81 388.2717
724 Erdogan & Ercan Koc Turkey TR-17-111618 24.08.2017 17:55:08.82 323.4595
734 Baris Savaskan Turkey TR-17-144593 24.08.2017 19:22:42.77 286.5655
740 Koroglu Karakurt Pigeons Turkey TR-17-147806 25.08.2017 07:08:28.28 149.3073
746 Metin Kavak Turkey TR-17-120520 25.08.2017 07:29:47.50 147.1777
750 Tayar & Barkin Basaran Turkey TR-17-147013 25.08.2017 07:43:41.18 145.8222
754 Tayar & Barkin Basaran Turkey TR-17-147012 25.08.2017 07:54:03.83 144.8260
787 Koroglu Karakurt Pigeons Turkey TR-17-162513 25.08.2017 10:37:01.68 130.7945
788 Ahmet Cavdaroglu Turkey TR-17-030065 25.08.2017 10:39:12.94 130.6246
798 Ahmet Guloglu & Muzaffer Kizil Turkey TR-17-162507 25.08.2017 13:31:46.52 118.4850

 

Bir Cevap Yazın

This site uses Akismet to reduce spam. Learn how your comment data is processed.

%d blogcu bunu beğendi: